Location: Newark
(43.0000°N, 1.6781°W)
Time: 09:09:55
(UTC+00:00)

AO-7 - Pass Details

Date: 16 December 2022
Orbit: 1440 x 1459 km, 101.9° (Epoch: 28 January)

Event Time Altitude Azimuth Distance (km) Brightness Sun altitude
Rises 05:07:52 0° 17° (NNE) 4,548 ? -25.3°
Reaches altitude 10° 05:10:38 10° 17° (NNE) 3,568 ? -24.8°
Maximum altitude 05:18:59 87° 290° (WNW) 1,455 ? -23.3°
Drops below altitude 10° 05:27:19 10° 202° (SSW) 3,563 ? -21.8°
Sets 05:30:05 0° 202° (SSW) 4,541 ? -21.3°
